Regional Weather Roundup
Issued by NWS

Home | Current Version | Previous Version | Text Only | Print | Product List | Glossary Off
Versions: 1 2 3 4 5 6 7 8 9 10 11 12 13 14 15 16 17 18 19 20 21 22 23 24 25 26 27 28 29 30 31 32 33 34 35 36 37 38 39 40 41 42 43 44 45 46 47 48 49 50

000
ASUS43 KFSD 231210
RWRSD

WEATHER ROUNDUP FOR SOUTH DAKOTA
NATIONAL WEATHER SERVICE SIOUX FALLS SD
600 AM CST FRI FEB 23 2018

NOTE: "FAIR" INDICATES FEW OR NO CLOUDS BELOW 12,000 FEET WITH NO
SIGNIFICANT WEATHER AND/OR OBSTRUCTIONS TO VISIBILITY.


SDZ001>005-009-010-012>017-231300-
NORTHWEST AND NORTH CENTRAL SOUTH DAKOTA

CITY           SKY/WX    TMP DP  RH WIND       PRES   REMARKS
BUFFALO          N/A     -6 -11  79 W9        30.07S WCI -23
FAITH            N/A     -3  -7  82 NW16      30.16S WCI -24
MOBRIDGE       CLOUDY    13   9  84 NW10      30.16R WCI   0
$$

SDZ012>016-024>037-041>051-057-063-072>074-231300-
SOUTHWEST AND SOUTH CENTRAL SOUTH DAKOTA

CITY           SKY/WX    TMP DP  RH WIND       PRES   REMARKS
RAPID CTY ARPT CLEAR     -1  -6  79 CALM      30.14R
PIERRE         CLEAR      3   0  87 W10       30.20R WCI -12
CUSTER         CLEAR     -1  -7  75 NW5       29.98R WCI -11
ELLSWORTH AFB  CLEAR      6  -3  65 W5        30.13R WCI  -3
PHILIP         CLEAR     -3  -6  87 W12       30.21R WCI -21
PINE RIDGE     PTCLDY   -10 -14  82 E3        30.16R
SPEARFISH        N/A      3  -8  60 W7        30.10F WCI  -9
WINNER         CLOUDY    13   7  77 W15       30.20R WCI  -3
$$

SDZ004>011-016>023-039-040-231300-
NORTHEAST SOUTH DAKOTA

CITY           SKY/WX    TMP DP  RH WIND       PRES   REMARKS
ABERDEEN       PTCLDY    15  14  95 W5        30.18R WCI   8
WATERTOWN      CLOUDY    20  18  92 W10       30.09R WCI   9
BROOKINGS      CLOUDY    19  17  92 NW13      30.12R WCI   6
SISSETON         N/A     20  18  92 NW15      30.11R WCI   6
$$

SDZ017-020-022-023-036>040-048>070-231300-
SOUTHEAST SOUTH DAKOTA

CITY           SKY/WX    TMP DP  RH WIND       PRES   REMARKS
SIOUX FALLS    CLOUDY    19  17  92 NW16      30.15R WCI   4
HURON          CLOUDY    15  13  91 NW13      30.19R WCI   1
CHAMBERLAIN    CLOUDY    13  11  94 SW3       30.22R
MITCHELL       CLOUDY    13  10  88 W13       30.21R WCI  -2
YANKTON        CLEAR     14  12  92 W13       30.21R WCI   0
$$

ABBREVIATIONS USED IN REMARKS
   TC - TEMPERATURE IN CELSIUS
  WCI - WIND CHILL INDEX
   HX - HEAT INDEX
  VSB - VISIBILITY




USA.gov is the U.S. government's official web portal to all federal, state and local government web resources and services.